sat.trackr.live / text

‹ back to catalog

STARLINK-33817

NORAD 63583 · 2025-076Q

PAYLOAD ACTIVE UNKNOWN

§ Identity

Operator
Country
US
Launch date
2025-04-14
Launch site
AFETR
Launch vehicle
Mass (kg)
RCS (m²)

Purposes: comms

External: N2YO · Heavens-Above · Gunter

§ Orbital elements

Epoch: 2026-05-24T23:46:46.305408Z

Period
94.27 min
Inclination
42.9982°
Eccentricity
0.0001086
Mean motion
15.27589470 rev/d
Perigee alt
482.3 km
Apogee alt
483.8 km
Semi-major
6,861.2 km
B*
4.4022e-4
RAAN
250.4407°
Arg perigee
269.0638°
Mean anomaly
91.0089°
Rev number
6,349

§ Raw data

STARLINK-338171 63583U 25076Q   26144.99081372  .00011875  00000+0  44022-3 0  99972 63583  42.9982 250.4407 0001086 269.0638  91.0089 15.27589470 63499

JSON: /api/v1/satellites/63583 · /tle

For live sub-satellite position, see the globe view (requires WebGL).

§ Visibility from observer

Set your observer location to see the next 7 days of passes ≥ 10°. The values pass through the URL so the page stays shareable.

No JS? Fill the form by hand. The geolocation button needs JavaScript.